Flag for Bahamas Weather past 2 weeks in Freeport, Bahamas

Now
75 °F

Passing clouds.


Feels Like: 77 °F
Forecast: 75 / 80 °F
Wind: 7 mph from North

Location: Palm Beach International Airport

Current Time: Oct 25, 2014 at 2:44:01 AM

Latest Report: Oct 25, 2014 at 1:53 AM


Visibility: 10 mi

Pressure: 29.87 "Hg

Humidity: 66%

Dew point: 63 °F

Location of FreeportLocation

Historic Weather in Freeport — Graph

°F

Freeport temperature yesterday

Maximum temperature yesterday: 80 °F (at 2:53 PM)
Minimum temperature yesterday: 77 °F (at 12:53 AM)
Average temperature yesterday: 78 °F

Past Weeks' High & Low Weather Summary

 TemperatureHumidityPressure
High88 °F (Oct 15, 1:53 PM)100% (Oct 21, 3:53 PM)30.08 "Hg (Oct 21, 3:53 PM)
Low64 °F (Oct 17, 4:53 AM)34% (Oct 17, 12:53 PM)29.82 "Hg (Oct 24, 4:53 PM)
Average78 °F72%29.96 "Hg
* Reported Oct 10 12:53 AM — Oct 25 12:53 AM, Freeport, Weather by CustomWeather, © 2014

Note: Actual official high and low records may vary slightly from our data, if they occured in-between our weather recording intervals... More about our weather records

Advertising

Freeport weather history for previous 24 hours

 ConditionsComfort  
Time TempWeatherWind HumidityBarometerVisibility
12:53 AM
Oct 25
76 °FPassing clouds.9 mph67%29.87 "Hg10 mi
11:53 PM
Oct 24
77 °FPassing clouds.14 mph66%29.87 "Hg10 mi
10:53 PM77 °FPartly cloudy.13 mph69%29.87 "Hg10 mi
9:53 PM77 °FPassing clouds.13 mph69%29.86 "Hg10 mi
8:53 PM77 °FPassing clouds.13 mph69%29.84 "Hg10 mi
7:53 PM77 °FPassing clouds.13 mph71%29.84 "Hg10 mi
6:53 PM78 °FPartly sunny.13 mph71%29.84 "Hg10 mi
5:53 PM78 °FBroken clouds.13 mph69%29.83 "Hg10 mi
4:53 PM79 °FBroken clouds.16 mph67%29.82 "Hg10 mi
3:53 PM79 °FBroken clouds.16 mph69%29.83 "Hg10 mi
2:53 PM80 °FBroken clouds.16 mph64%29.84 "Hg10 mi
1:53 PM79 °FMore clouds than sun.17 mph67%29.87 "Hg10 mi
12:53 PM79 °FBroken clouds.18 mph67%29.89 "Hg10 mi
11:53 AM79 °FLight rain. Broken clouds.18 mph67%29.90 "Hg10 mi
10:53 AM79 °FPartly sunny.17 mph67%29.92 "Hg10 mi
9:53 AM78 °FPartly sunny.16 mph69%29.91 "Hg10 mi
8:53 AM78 °FMore clouds than sun.14 mph66%29.89 "Hg10 mi
7:53 AM77 °FPartly cloudy.13 mph69%29.87 "Hg10 mi
6:53 AM77 °FPassing clouds.15 mph69%29.86 "Hg10 mi
5:53 AM77 °FOvercast.14 mph71%29.86 "Hg10 mi
4:53 AM77 °FOvercast.15 mph66%29.85 "Hg10 mi
3:53 AM77 °FOvercast.14 mph66%29.86 "Hg10 mi
2:53 AM77 °FOvercast.13 mph64%29.87 "Hg10 mi
Weather by CustomWeather, © 2014

See weather overviewHow to use our weather pages